| time (UTC) | temp F | wind direction | speed MPH | gust MPH | rain 1hr in | rain 24hr in | rain mn in | humidity % | barometer mb |
| 20260510221508 | 69 | 299 | 0.0 | 0.0 | 0.00 | 0.20 | 0.14 | 44 | 1018.4 |
| 20260510220003 | 69 | 318 | 0.0 | 0.0 | 0.00 | 0.20 | 0.14 | 45 | 1018.6 |
| 20260510214501 | 68 | 14 | 0.0 | 3.0 | 0.00 | 0.20 | 0.14 | 45 | 1018.7 |
| 20260510213102 | 68 | 287 | 0.0 | 6.0 | 0.00 | 0.20 | 0.14 | 47 | 1018.6 |
| 20260510211601 | 68 | 38 | 0.0 | 0.0 | 0.00 | 0.20 | 0.14 | 48 | 1018.7 |
| 20260510210058 | 68 | 322 | 0.0 | 1.0 | 0.00 | 0.20 | 0.14 | 46 | 1018.7 |
| 20260510204605 | 68 | 1 | 1.0 | 7.0 | 0.00 | 0.20 | 0.14 | 46 | 1019.0 |
| 20260510203056 | 68 | 305 | 0.0 | 7.0 | 0.00 | 0.20 | 0.14 | 48 | 1018.9 |
| 20260510201555 | 68 | 320 | 1.0 | 5.0 | 0.00 | 0.20 | 0.14 | 53 | 1018.6 |
| 20260510200055 | 66 | 299 | 0.0 | 4.0 | 0.00 | 0.20 | 0.14 | 65 | 1018.7 |
| 20260510194558 | 64 | 291 | 1.0 | 6.0 | 0.00 | 0.20 | 0.14 | 69 | 1018.5 |
| 20260510193054 | 64 | 301 | 0.0 | 0.0 | 0.00 | 0.20 | 0.14 | 67 | 1018.7 |
| 20260510191556 | 62 | 306 | 0.0 | 5.0 | 0.00 | 0.20 | 0.14 | 69 | 1018.8 |
| 20260510190055 | 61 | 320 | 0.0 | 0.0 | 0.00 | 0.20 | 0.14 | 72 | 1018.9 |
| 20260510184553 | 60 | 131 | 0.0 | 0.0 | 0.00 | 0.20 | 0.14 | 73 | 1018.6 |
| 20260510183050 | 58 | 19 | 0.0 | 0.0 | 0.00 | 0.20 | 0.14 | 76 | 1018.4 |
| 20260510181550 | 58 | 338 | 0.0 | 0.0 | 0.00 | 0.20 | 0.14 | 78 | 1018.7 |
| 20260510180050 | 57 | 107 | 0.0 | 0.0 | 0.02 | 0.20 | 0.14 | 80 | 1018.7 |
| 20260510174553 | 57 | 325 | 0.0 | 0.0 | 0.02 | 0.20 | 0.14 | 82 | 1018.7 |
| 20260510173048 | 56 | 333 | 0.0 | 0.0 | 0.04 | 0.20 | 0.14 | 84 | 1018.1 |
| 20260510171554 | 56 | 318 | 0.0 | 0.0 | 0.05 | 0.20 | 0.14 | 84 | 1018.3 |
| 20260510170047 | 56 | 326 | 0.0 | 0.0 | 0.00 | 0.00 | 0.12 | 81 | 1018.1 |
| 20260510164546 | 56 | 90 | 0.0 | 0.0 | 0.03 | 0.18 | 0.12 | 80 | 1017.3 |
| 20260510163040 | 57 | 359 | 0.0 | 0.0 | 0.01 | 0.16 | 0.10 | 76 | 1017.5 |
| 20260510161539 | 57 | 20 | 2.0 | 8.0 | 0.00 | 0.15 | 0.09 | 74 | 1017.5 |
| 20260510160037 | 58 | 3 | 0.0 | 9.0 | 0.00 | 0.15 | 0.09 | 73 | 1017.2 |
| 20260510154539 | 57 | 295 | 2.0 | 14.0 | 0.00 | 0.15 | 0.09 | 73 | 1016.6 |
| 20260510153034 | 57 | 61 | 2.0 | 13.0 | 0.00 | 0.15 | 0.09 | 75 | 1016.6 |
| 20260510151534 | 57 | 344 | 3.0 | 14.0 | 0.00 | 0.15 | 0.09 | 77 | 1016.8 |
| 20260510150028 | 57 | 320 | 2.0 | 12.0 | 0.00 | 0.15 | 0.09 | 81 | 1016.7 |
| 20260510144542 | 57 | 35 | 1.0 | 8.0 | 0.00 | 0.15 | 0.09 | 82 | 1016.8 |
| 20260510143027 | 58 | 353 | 0.0 | 7.0 | 0.00 | 0.15 | 0.09 | 83 | 1016.8 |
| 20260510141525 | 58 | 302 | 0.0 | 9.0 | 0.02 | 0.15 | 0.09 | 83 | 1016.2 |
| 20260510140020 | 58 | 339 | 0.0 | 3.0 | 0.04 | 0.15 | 0.09 | 84 | 1016.3 |
| 20260510134518 | 58 | 7 | 0.0 | 6.0 | 0.05 | 0.15 | 0.09 | 84 | 1016.0 |
| 20260510133021 | 58 | 110 | 1.0 | 9.0 | 0.07 | 0.15 | 0.09 | 85 | 1014.4 |
| 20260510131519 | 58 | 167 | 0.0 | 2.0 | 0.07 | 0.13 | 0.07 | 87 | 1014.5 |
| 20260510130017 | 58 | 315 | 0.0 | 0.0 | 0.05 | 0.11 | 0.05 | 87 | 1015.2 |
| 20260510124511 | 59 | 89 | 0.0 | 0.0 | 0.04 | 0.10 | 0.04 | 85 | 1015.2 |
| 20260510123010 | 59 | 296 | 0.0 | 0.0 | 0.02 | 0.08 | 0.02 | 84 | 1015.1 |
| 20260510121508 | 60 | 296 | 0.0 | 0.0 | 0.00 | 0.06 | 0.00 | 81 | 1015.5 |
| 20260510120007 | 61 | 296 | 0.0 | 0.0 | 0.00 | 0.06 | 0.00 | 76 | 1015.2 |
| 20260510114502 | 61 | 304 | 0.0 | 0.0 | 0.00 | 0.06 | 0.00 | 74 | 1013.9 |
| 20260510113059 | 61 | 302 | 0.0 | 0.0 | 0.00 | 0.06 | 0.00 | 76 | 1013.2 |
| 20260510111606 | 60 | 294 | 0.0 | 0.0 | 0.00 | 0.06 | 0.00 | 77 | 1011.9 |
| 20260510110058 | 60 | 317 | 0.0 | 0.0 | 0.00 | 0.06 | 0.00 | 76 | 1011.4 |
| 20260510104609 | 60 | 128 | 0.0 | 0.0 | 0.00 | 0.06 | 0.00 | 76 | 1011.0 |
| 20260510103049 | 60 | 128 | 0.0 | 0.0 | 0.00 | 0.06 | 0.00 | 75 | 1010.7 |
| 20260510101549 | 59 | 130 | 0.0 | 0.0 | 0.00 | 0.06 | 0.00 | 76 | 1010.4 |
| 20260510100047 | 59 | 130 | 0.0 | 0.0 | 0.00 | 0.06 | 0.00 | 75 | 1010.7 |
| 20260510094546 | 60 | 130 | 0.0 | 0.0 | 0.00 | 0.06 | 0.00 | 75 | 1010.7 |
| 20260510093043 | 61 | 130 | 0.0 | 0.0 | 0.00 | 0.06 | 0.00 | 73 | 1010.8 |
| 20260510091541 | 61 | 130 | 0.0 | 0.0 | 0.00 | 0.06 | 0.00 | 73 | 1010.9 |
| 20260510090038 | 62 | 130 | 0.0 | 0.0 | 0.00 | 0.06 | 0.00 | 69 | 1010.9 |
| 20260510084536 | 63 | 130 | 0.0 | 0.0 | 0.00 | 0.06 | 0.00 | 68 | 1010.6 |
| 20260510083033 | 63 | 130 | 0.0 | 0.0 | 0.00 | 0.06 | 0.00 | 65 | 1010.5 |
| 20260510081529 | 64 | 130 | 0.0 | 0.0 | 0.00 | 0.06 | 0.00 | 61 | 1009.9 |
| 20260510080029 | 64 | 130 | 0.0 | 0.0 | 0.00 | 0.06 | 0.00 | 60 | 1009.5 |
| 20260510074531 | 66 | 131 | 0.0 | 0.0 | 0.00 | 0.06 | 0.00 | 58 | 1009.5 |
| 20260510073021 | 67 | 130 | 0.0 | 0.0 | 0.00 | 0.06 | 0.00 | 54 | 1009.7 |
| 20260510071517 | 68 | 130 | 0.0 | 0.0 | 0.00 | 0.06 | 0.00 | 52 | 1009.5 |
| 20260510070016 | 69 | 130 | 0.0 | 0.0 | 0.00 | 0.06 | 0.00 | 51 | 1009.3 |
| 20260510064513 | 69 | 130 | 0.0 | 0.0 | 0.00 | 0.06 | 0.00 | 48 | 1008.8 |
| 20260510063008 | 69 | 130 | 0.0 | 0.0 | 0.00 | 0.06 | 0.00 | 49 | 1008.3 |
| 20260510061507 | 71 | 130 | 0.0 | 6.0 | 0.00 | 0.06 | 0.00 | 46 | 1007.9 |
| 20260510060006 | 70 | 43 | 0.0 | 18.0 | 0.00 | 0.06 | 0.00 | 48 | 1007.8 |
| 20260510054503 | 70 | 149 | 14.0 | 25.0 | 0.00 | 0.06 | 0.00 | 48 | 1006.4 |
| 20260510053113 | 70 | 176 | 14.0 | 27.0 | 0.02 | 0.06 | 0.00 | 51 | 1005.0 |
| 20260510051645 | 69 | 154 | 26.0 | 39.0 | 0.04 | 0.06 | 0.00 | 55 | 1004.1 |
| 20260510050056 | 69 | 219 | 15.0 | 25.0 | 0.04 | 0.06 | 0.00 | 59 | 1007.6 |
| 20260510044553 | 67 | 148 | 19.0 | 25.0 | 0.05 | 0.06 | 0.06 | 68 | 1007.3 |
| 20260510043130 | 67 | 223 | 13.0 | 23.0 | 0.04 | 0.04 | 0.04 | 70 | 1010.2 |
| 20260510041553 | 61 | 220 | 12.0 | 17.0 | 0.02 | 0.02 | 0.02 | 91 | 1011.2 |
| 20260510040049 | 67 | 159 | 9.0 | 14.0 | 0.02 | 0.02 | 0.02 | 68 | 1010.0 |
| 20260510034553 | 69 | 336 | 0.0 | 0.0 | 0.01 | 0.01 | 0.01 | 58 | 1011.8 |
| 20260510033050 | 71 | 333 | 0.0 | 4.0 | 0.00 | 0.00 | 0.00 | 55 | 1012.3 |
| 20260510031610 | 72 | 313 | 4.0 | 13.0 | 0.00 | 0.00 | 0.00 | 51 | 1011.7 |
| 20260510030039 | 72 | 353 | 1.0 | 7.0 | 0.00 | 0.00 | 0.00 | 53 | 1010.4 |
| 20260510024537 | 73 | 348 | 0.0 | 5.0 | 0.00 | 0.00 | 0.00 | 49 | 1009.4 |
| 20260510023042 | 74 | 109 | 0.0 | 7.0 | 0.00 | 0.00 | 0.00 | 45 | 1008.1 |
| 20260510021530 | 73 | 123 | 1.0 | 8.0 | 0.00 | 0.00 | 0.00 | 45 | 1007.5 |
| 20260510020028 | 73 | 133 | 0.0 | 3.0 | 0.00 | 0.00 | 0.00 | 48 | 1007.2 |
| 20260510014527 | 73 | 53 | 0.0 | 0.0 | 0.00 | 0.00 | 0.00 | 47 | 1006.9 |
| 20260510013026 | 74 | 148 | 0.0 | 0.0 | 0.00 | 0.00 | 0.00 | 46 | 1006.7 |
| 20260510011526 | 75 | 117 | 0.0 | 0.0 | 0.00 | 0.00 | 0.00 | 43 | 1006.1 |
| 20260510010029 | 77 | 142 | 0.0 | 7.0 | 0.00 | 0.00 | 0.00 | 41 | 1006.0 |
| 20260510004524 | 78 | 116 | 0.0 | 8.0 | 0.00 | 0.00 | 0.00 | 40 | 1005.6 |
| 20260510003024 | 79 | 142 | 5.0 | 10.0 | 0.00 | 0.00 | 0.00 | 38 | 1005.6 |
| 20260510001523 | 80 | 141 | 5.0 | 11.0 | 0.00 | 0.00 | 0.00 | 37 | 1005.5 |
| 20260510000023 | 80 | 126 | 4.0 | 12.0 | 0.00 | 0.00 | 0.00 | 36 | 1005.5 |
| 20260509234524 | 81 | 148 | 5.0 | 12.0 | 0.00 | 0.00 | 0.00 | 36 | 1005.6 |
| 20260509233020 | 81 | 123 | 6.0 | 12.0 | 0.00 | 0.00 | 0.00 | 35 | 1005.6 |
| 20260509231520 | 82 | 126 | 6.0 | 12.0 | 0.00 | 0.00 | 0.00 | 34 | 1005.6 |
| 20260509230020 | 82 | 134 | 7.0 | 12.0 | 0.00 | 0.00 | 0.00 | 32 | 1005.5 |
| 20260509224520 | 83 | 142 | 6.0 | 14.0 | 0.00 | 0.00 | 0.00 | 33 | 1005.5 |
| 20260509223017 | 83 | 114 | 3.0 | 15.0 | 0.00 | 0.00 | 0.00 | 31 | 1005.5 |